| time (UTC) | temp F | wind direction | speed MPH | gust MPH | rain 1hr in | rain 24hr in | rain mn in | humidity % | barometer mb |
| 20260510130014 | 55 | 150 | 0.0 | 0.0 | 0.00 | 0.01 | 0.00 | 8 | 1012.5 |
| 20260510124510 | 54 | 150 | 0.0 | 0.0 | 0.00 | 0.01 | 0.00 | 8 | 1012.5 |
| 20260510123008 | 53 | 150 | 0.0 | 0.0 | 0.00 | 0.01 | 0.00 | 9 | 1012.4 |
| 20260510121601 | 53 | 150 | 0.0 | 0.0 | 0.00 | 0.01 | 0.00 | 9 | 1012.2 |
| 20260510120056 | 53 | 150 | 0.0 | 1.0 | 0.00 | 0.01 | 0.00 | 9 | 1012.2 |
| 20260510114552 | 53 | 150 | 0.0 | 3.0 | 0.00 | 0.01 | 0.00 | 9 | 1012.1 |
| 20260510113048 | 53 | 151 | 0.0 | 0.0 | 0.00 | 0.01 | 0.00 | 9 | 1012.1 |
| 20260510111543 | 52 | 151 | 0.0 | 0.0 | 0.00 | 0.01 | 0.00 | 10 | 1012.0 |
| 20260510110039 | 52 | 151 | 0.0 | 0.0 | 0.00 | 0.01 | 0.00 | 10 | 1012.0 |
| 20260510104536 | 52 | 151 | 0.0 | 0.0 | 0.00 | 0.01 | 0.00 | 10 | 1011.9 |
| 20260510103030 | 52 | 151 | 0.0 | 0.0 | 0.00 | 0.01 | 0.00 | 10 | 1011.8 |
| 20260510101525 | 52 | 151 | 0.0 | 0.0 | 0.00 | 0.01 | 0.00 | 10 | 1011.5 |
| 20260510100021 | 52 | 151 | 0.0 | 0.0 | 0.00 | 0.01 | 0.00 | 10 | 1011.1 |
| 20260510094532 | 52 | 151 | 0.0 | 0.0 | 0.00 | 0.01 | 0.00 | 10 | 1010.8 |
| 20260510093012 | 52 | 151 | 0.0 | 0.0 | 0.00 | 0.01 | 0.00 | 10 | 1010.9 |
| 20260510091508 | 52 | 151 | 0.0 | 0.0 | 0.00 | 0.01 | 0.00 | 10 | 1010.8 |
| 20260510090005 | 52 | 155 | 0.0 | 0.0 | 0.00 | 0.01 | 0.00 | 10 | 1010.6 |
| 20260510084604 | 52 | 155 | 0.0 | 0.0 | 0.00 | 0.01 | 0.00 | 10 | 1010.4 |
| 20260510083055 | 52 | 155 | 0.0 | 0.0 | 0.00 | 0.01 | 0.00 | 11 | 1010.4 |
| 20260510081556 | 52 | 156 | 0.0 | 0.0 | 0.00 | 0.01 | 0.00 | 11 | 1010.6 |
| 20260510080048 | 52 | 156 | 0.0 | 1.0 | 0.00 | 0.01 | 0.00 | 11 | 1010.4 |
| 20260510074542 | 52 | 56 | 0.0 | 1.0 | 0.00 | 0.01 | 0.00 | 11 | 1010.5 |
| 20260510073037 | 52 | 56 | 0.0 | 0.0 | 0.00 | 0.01 | 0.00 | 11 | 1010.6 |
| 20260510071533 | 52 | 56 | 0.0 | 0.0 | 0.00 | 0.01 | 0.00 | 11 | 1011.3 |
| 20260510070034 | 53 | 56 | 0.0 | 0.0 | 0.00 | 0.01 | 0.00 | 11 | 1011.1 |
| 20260510064527 | 53 | 56 | 0.0 | 0.0 | 0.00 | 0.01 | 0.00 | 11 | 1011.5 |
| 20260510063025 | 53 | 56 | 0.0 | 1.0 | 0.00 | 0.01 | 0.00 | 11 | 1011.4 |
| 20260510061528 | 53 | 56 | 0.0 | 0.0 | 0.00 | 0.01 | 0.00 | 11 | 1011.1 |
| 20260510060023 | 53 | 56 | 0.0 | 2.0 | 0.00 | 0.01 | 0.00 | 11 | 1011.0 |
| 20260510054522 | 53 | 138 | 0.0 | 0.0 | 0.00 | 0.01 | 0.00 | 11 | 1010.6 |
| 20260510053021 | 53 | 138 | 0.0 | 0.0 | 0.00 | 0.01 | 0.00 | 12 | 1010.8 |
| 20260510051530 | 53 | 138 | 0.0 | 0.0 | 0.00 | 0.01 | 0.00 | 12 | 1010.8 |
| 20260510050020 | 53 | 139 | 0.0 | 0.0 | 0.00 | 0.01 | 0.00 | 13 | 1011.0 |
| 20260510044518 | 53 | 139 | 0.0 | 1.0 | 0.00 | 0.01 | 0.00 | 13 | 1010.8 |
| 20260510043022 | 53 | 138 | 0.0 | 0.0 | 0.00 | 0.01 | 0.00 | 12 | 1010.8 |
| 20260510041514 | 53 | 137 | 0.0 | 3.0 | 0.00 | 0.01 | 0.00 | 12 | 1010.6 |
| 20260510040012 | 53 | 148 | 1.0 | 5.0 | 0.00 | 0.01 | 0.00 | 12 | 1010.6 |
| 20260510034508 | 54 | 171 | 0.0 | 10.0 | 0.00 | 0.01 | 0.01 | 11 | 1010.6 |
| 20260510033003 | 54 | 101 | 0.0 | 6.0 | 0.00 | 0.01 | 0.01 | 11 | 1010.6 |
| 20260510031603 | 54 | 127 | 0.0 | 5.0 | 0.00 | 0.01 | 0.01 | 11 | 1010.8 |
| 20260510030054 | 54 | 105 | 0.0 | 1.0 | 0.00 | 0.01 | 0.01 | 11 | 1010.5 |
| 20260510024607 | 54 | 165 | 0.0 | 4.0 | 0.00 | 0.01 | 0.01 | 11 | 1010.8 |
| 20260510023046 | 54 | 131 | 0.0 | 3.0 | 0.00 | 0.01 | 0.01 | 11 | 1010.7 |
| 20260510021541 | 54 | 122 | 0.0 | 2.0 | 0.00 | 0.01 | 0.01 | 11 | 1010.5 |
| 20260510020037 | 54 | 137 | 0.0 | 5.0 | 0.01 | 0.01 | 0.01 | 11 | 1010.7 |
| 20260510014532 | 54 | 137 | 0.0 | 0.0 | 0.01 | 0.01 | 0.01 | 12 | 1010.9 |
| 20260510013028 | 54 | 137 | 0.0 | 0.0 | 0.01 | 0.01 | 0.01 | 12 | 1010.8 |
| 20260510011523 | 54 | 137 | 0.0 | 0.0 | 0.01 | 0.01 | 0.01 | 12 | 1010.6 |
| 20260510010019 | 54 | 137 | 0.0 | 3.0 | 0.00 | 0.00 | 0.00 | 12 | 1010.3 |
| 20260510004516 | 54 | 136 | 0.0 | 2.0 | 0.00 | 0.00 | 0.00 | 13 | 1010.3 |
| 20260510003011 | 54 | 135 | 0.0 | 3.0 | 0.00 | 0.00 | 0.00 | 13 | 1010.2 |
| 20260510001508 | 54 | 135 | 0.0 | 3.0 | 0.00 | 0.00 | 0.00 | 15 | 1010.0 |
| 20260510000006 | 54 | 147 | 0.0 | 2.0 | 0.00 | 0.00 | 0.00 | 15 | 1009.7 |
| 20260509234558 | 55 | 144 | 0.0 | 3.0 | 0.00 | 0.00 | 0.00 | 15 | 1009.6 |
| 20260509233054 | 55 | 157 | 0.0 | 1.0 | 0.00 | 0.00 | 0.00 | 15 | 1009.3 |
| 20260509231600 | 56 | 157 | 0.0 | 5.0 | 0.00 | 0.00 | 0.00 | 14 | 1009.3 |
| 20260509230044 | 56 | 140 | 0.0 | 4.0 | 0.00 | 0.00 | 0.00 | 13 | 1009.3 |
| 20260509224539 | 56 | 130 | 0.0 | 5.0 | 0.00 | 0.00 | 0.00 | 12 | 1009.3 |
| 20260509223043 | 56 | 123 | 0.0 | 2.0 | 0.00 | 0.00 | 0.00 | 10 | 1009.4 |
| 20260509221533 | 56 | 115 | 0.0 | 6.0 | 0.00 | 0.00 | 0.00 | 9 | 1009.6 |
| 20260509220026 | 56 | 151 | 0.0 | 2.0 | 0.00 | 0.00 | 0.00 | 8 | 1009.6 |
| 20260509214522 | 55 | 133 | 0.0 | 2.0 | 0.00 | 0.00 | 0.00 | 8 | 1009.7 |
| 20260509213018 | 55 | 132 | 0.0 | 3.0 | 0.00 | 0.00 | 0.00 | 8 | 1009.7 |
| 20260509211516 | 55 | 69 | 0.0 | 1.0 | 0.00 | 0.00 | 0.00 | 8 | 1009.6 |
| 20260509210011 | 55 | 69 | 0.0 | 4.0 | 0.00 | 0.00 | 0.00 | 8 | 1009.8 |
| 20260509204505 | 55 | 84 | 0.0 | 1.0 | 0.00 | 0.00 | 0.00 | 8 | 1010.0 |
| 20260509203005 | 55 | 84 | 0.0 | 1.0 | 0.00 | 0.00 | 0.00 | 8 | 1010.1 |
| 20260509201558 | 54 | 144 | 0.0 | 1.0 | 0.00 | 0.00 | 0.00 | 8 | 1010.2 |
| 20260509200055 | 54 | 145 | 0.0 | 3.0 | 0.00 | 0.00 | 0.00 | 8 | 1010.3 |
| 20260509194547 | 54 | 103 | 0.0 | 3.0 | 0.00 | 0.00 | 0.00 | 9 | 1010.5 |
| 20260509193044 | 53 | 153 | 0.0 | 4.0 | 0.00 | 0.00 | 0.00 | 10 | 1010.7 |
| 20260509191539 | 53 | 109 | 0.0 | 4.0 | 0.00 | 0.00 | 0.00 | 10 | 1011.0 |
| 20260509190039 | 53 | 103 | 1.0 | 7.0 | 0.00 | 0.00 | 0.00 | 10 | 1011.1 |
| 20260509184536 | 52 | 142 | 1.0 | 10.0 | 0.00 | 0.00 | 0.00 | 11 | 1011.2 |
| 20260509183026 | 52 | 148 | 1.0 | 6.0 | 0.00 | 0.00 | 0.00 | 11 | 1011.4 |
| 20260509181522 | 52 | 86 | 1.0 | 7.0 | 0.00 | 0.00 | 0.00 | 12 | 1011.3 |
| 20260509180025 | 52 | 130 | 0.0 | 5.0 | 0.00 | 0.00 | 0.00 | 12 | 1011.3 |
| 20260509174521 | 52 | 165 | 0.0 | 5.0 | 0.00 | 0.00 | 0.00 | 12 | 1011.3 |
| 20260509173049 | 51 | 158 | 0.0 | 3.0 | 0.00 | 0.00 | 0.00 | 12 | 1011.4 |
| 20260509171524 | 51 | 146 | 0.0 | 5.0 | 0.00 | 0.00 | 0.00 | 12 | 1011.8 |
| 20260509170017 | 51 | 137 | 0.0 | 4.0 | 0.00 | 0.00 | 0.00 | 12 | 1012.1 |
| 20260509164515 | 51 | 138 | 1.0 | 5.0 | 0.00 | 0.00 | 0.00 | 13 | 1012.2 |
| 20260509163016 | 51 | 178 | 0.0 | 2.0 | 0.00 | 0.00 | 0.00 | 13 | 1012.3 |
| 20260509161508 | 50 | 182 | 0.0 | 1.0 | 0.00 | 0.00 | 0.00 | 14 | 1012.5 |
| 20260509160004 | 49 | 183 | 0.0 | 0.0 | 0.00 | 0.00 | 0.00 | 16 | 1012.7 |
| 20260509154600 | 48 | 183 | 0.0 | 0.0 | 0.00 | 0.00 | 0.00 | 17 | 1013.0 |
| 20260509153100 | 48 | 183 | 0.0 | 2.0 | 0.00 | 0.00 | 0.00 | 17 | 1013.1 |
| 20260509151621 | 48 | 183 | 0.0 | 2.0 | 0.00 | 0.00 | 0.00 | 17 | 1013.1 |
| 20260509150055 | 47 | 176 | 0.0 | 4.0 | 0.00 | 0.00 | 0.00 | 19 | 1013.3 |
| 20260509144552 | 46 | 116 | 0.0 | 0.0 | 0.00 | 0.00 | 0.00 | 20 | 1013.3 |
| 20260509143058 | 46 | 116 | 0.0 | 2.0 | 0.00 | 0.00 | 0.00 | 21 | 1013.5 |
| 20260509141552 | 46 | 117 | 0.0 | 1.0 | 0.00 | 0.00 | 0.00 | 21 | 1013.5 |
| 20260509140047 | 45 | 117 | 0.0 | 1.0 | 0.00 | 0.00 | 0.00 | 22 | 1013.4 |
| 20260509134547 | 45 | 117 | 0.0 | 0.0 | 0.00 | 0.00 | 0.00 | 23 | 1013.4 |
| 20260509133045 | 44 | 117 | 0.0 | 0.0 | 0.00 | 0.00 | 0.00 | 23 | 1013.3 |
| 20260509131556 | 44 | 117 | 0.0 | 0.0 | 0.00 | 0.00 | 0.00 | 24 | 1013.3 |